Auburn, AL

11:35 AM CDT on March 28, 2017 (GMT -0500)
Auburn-opelika-pitts

Weather History for KAUO - December, 2013

Change the Weather History Date:

Wednesday, December 4, 2013

  Actual Average Record
Temperature  
Mean Temperature 66 °F -  
Max Temperature 70 °F - 77 °F (1998)
Min Temperature 61 °F - 16 °F (1960)
Degree Days  
Heating Degree Days 0    
Month to date heating degree days 32  
Since 1 July heating degree days 467  
Growing Degree Days 14 (Base 50)    
Moisture  
Dew Point 61 °F    
Average Humidity 89    
Maximum Humidity 94    
Minimum Humidity 73    
Precipitation  
Precipitation 0.01 in - 3.37 in (1983)
Month to date precipitation 0.69  
Year to date precipitation 41.95  
Sea Level Pressure  
Sea Level Pressure 29.98 in    
Wind  
Wind Speed 9 mph (South)    
Max Wind Speed 13 mph    
Max Gust Speed 17 mph    
Visibility 7 miles    
Events      
T = Trace of Precipitation, MM = Missing Value Source: NWS Daily Summary

Daily Weather History Graph

Daily Weather History Graph

Search for Another Location

Airport or City:

Trip Planner

Search our weather history database for the weather conditions in past years. The results will help you decide how hot, cold, wet, or windy it might be!

Date:

Astronomy

Dec. 04, 2013 Rise Set
Actual Time 6:28 AM CST 4:35 PM CST
Civil Twilight 6:01 AM CST 5:02 PM CST
Nautical Twilight 5:30 AM CST 5:33 PM CST
Astronomical Twilight 5:01 AM CST 6:02 PM CST
Moon 7:57 AM CST (12/4) 6:42 PM CST (12/4)
Length of Visible Light 11h 01m
Length of Day
10h 07m
Waxing Crescent, 4% of the Moon is Illuminated
Dec 4
Waxing Crescent
Dec 9
First Quarter
Dec 17
Full
Dec 25
Last Quarter
Jan 1
New

Hourly Weather History & Observations

Time (CST) Temp. Dew Point Humidity Pressure Visibility Wind Dir Wind Speed Gust Speed Precip Events Conditions
12:15 AM 60.8 °F 57.2 °F 88% 29.91 in 7.0 mi South 9.2 mph - N/A   Overcast
12:35 AM 60.8 °F 57.2 °F 88% 29.91 in 5.0 mi South 10.4 mph - N/A   Overcast
12:55 AM 60.8 °F 59.0 °F 94% 29.92 in 7.0 mi South 8.1 mph - N/A   Overcast
1:15 AM 60.8 °F 59.0 °F 94% 29.92 in 7.0 mi SSW 8.1 mph - N/A   Overcast
1:35 AM 60.8 °F 57.2 °F 88% 29.92 in 5.0 mi South 10.4 mph - N/A   Overcast
1:55 AM 60.8 °F 57.2 °F 88% 29.93 in 3.0 mi SSW 8.1 mph - N/A   Overcast
2:15 AM 60.8 °F 57.2 °F 88% 29.93 in 3.0 mi SSW 8.1 mph - N/A   Overcast
2:35 AM 60.8 °F 59.0 °F 94% 29.93 in 3.0 mi South 9.2 mph - N/A   Overcast
2:55 AM 60.8 °F 59.0 °F 94% 29.93 in 2.0 mi SSW 10.4 mph - N/A   Overcast
3:15 AM 60.8 °F 59.0 °F 94% 29.92 in 1.2 mi SSW 11.5 mph 18.4 mph N/A   Overcast
3:35 AM 60.8 °F 59.0 °F 94% 29.92 in 0.8 mi South 10.4 mph - N/A   Overcast
3:55 AM 60.8 °F 59.0 °F 94% 29.92 in 2.0 mi SSW 9.2 mph - N/A   Overcast
4:15 AM 60.8 °F 59.0 °F 94% 29.93 in 5.0 mi SSW 9.2 mph - N/A   Overcast
4:35 AM 60.8 °F 59.0 °F 94% 29.93 in 4.0 mi SSW 8.1 mph - N/A   Overcast
4:55 AM 62.6 °F 59.0 °F 88% 29.94 in 5.0 mi SSW 9.2 mph - N/A   Overcast
5:15 AM 60.8 °F 59.0 °F 94% 29.95 in 3.0 mi South 8.1 mph - N/A   Overcast
5:35 AM 60.8 °F 59.0 °F 94% 29.96 in 3.0 mi South 6.9 mph - N/A   Overcast
5:55 AM 62.6 °F 59.0 °F 88% 29.97 in 4.0 mi South 8.1 mph - N/A   Overcast
6:15 AM 62.6 °F 59.0 °F 88% 29.97 in 2.0 mi South 6.9 mph - N/A   Overcast
6:35 AM 62.6 °F 60.8 °F 94% 29.98 in 1.5 mi South 5.8 mph - N/A   Overcast
6:55 AM 62.6 °F 60.8 °F 94% 29.99 in 1.0 mi South 6.9 mph - N/A   Overcast
7:15 AM 62.6 °F 60.8 °F 94% 30.00 in 0.5 mi South 6.9 mph - N/A   Overcast
7:35 AM 62.6 °F 60.8 °F 94% 30.00 in 0.5 mi South 6.9 mph - N/A   Overcast
7:55 AM 62.6 °F 60.8 °F 94% 30.01 in 1.2 mi South 9.2 mph - N/A   Overcast
8:15 AM 62.6 °F 60.8 °F 94% 30.02 in 4.0 mi South 6.9 mph - N/A   Overcast
8:35 AM 62.6 °F 60.8 °F 94% 30.03 in 5.0 mi South 6.9 mph - N/A   Overcast
8:55 AM 62.6 °F 60.8 °F 94% 30.03 in 5.0 mi South 8.1 mph - N/A   Overcast
9:15 AM 62.6 °F 60.8 °F 94% 30.04 in 5.0 mi South 6.9 mph - N/A   Overcast
9:35 AM 64.4 °F 60.8 °F 88% 30.04 in 7.0 mi South 5.8 mph - N/A   Overcast
9:55 AM 64.4 °F 62.6 °F 94% 30.04 in 8.0 mi South 6.9 mph - N/A   Overcast
10:15 AM 64.4 °F 60.8 °F 88% 30.04 in 7.0 mi South 8.1 mph - N/A   Overcast
10:35 AM 64.4 °F 60.8 °F 88% 30.03 in 8.0 mi South 8.1 mph - N/A   Overcast
10:55 AM 66.2 °F 62.6 °F 88% 30.03 in 9.0 mi SSW 8.1 mph - N/A   Overcast
11:15 AM 66.2 °F 62.6 °F 88% 30.02 in 10.0 mi South 8.1 mph - N/A   Overcast
11:35 AM 66.2 °F 62.6 °F 88% 30.00 in 10.0 mi South 9.2 mph - N/A   Overcast
11:55 AM 68.0 °F 62.6 °F 83% 29.99 in 10.0 mi South 9.2 mph - N/A   Mostly Cloudy
12:15 PM 69.8 °F 60.8 °F 73% 29.98 in 10.0 mi South 13.8 mph - N/A   Overcast
12:35 PM 68.0 °F 62.6 °F 83% 29.98 in 10.0 mi South 9.2 mph - N/A   Overcast
12:55 PM 68.0 °F 60.8 °F 78% 29.97 in 10.0 mi South 12.7 mph - N/A   Mostly Cloudy
1:15 PM 69.8 °F 62.6 °F 78% 29.96 in 10.0 mi SSE 9.2 mph - N/A   Mostly Cloudy
1:35 PM 69.8 °F 60.8 °F 73% 29.96 in 10.0 mi SSE 9.2 mph 17.3 mph N/A   Mostly Cloudy
1:55 PM 69.8 °F 62.6 °F 78% 29.97 in 10.0 mi SSE 12.7 mph 17.3 mph N/A   Overcast
2:15 PM 69.8 °F 62.6 °F 78% 29.96 in 10.0 mi SSE 11.5 mph - N/A   Mostly Cloudy
2:35 PM 69.8 °F 62.6 °F 78% 29.96 in 10.0 mi SSE 10.4 mph - N/A   Scattered Clouds
2:55 PM 69.8 °F 62.6 °F 78% 29.96 in 10.0 mi South 10.4 mph - N/A   Partly Cloudy
3:15 PM 69.8 °F 62.6 °F 78% 29.96 in 10.0 mi SSE 9.2 mph - N/A   Scattered Clouds
3:35 PM 69.8 °F 62.6 °F 78% 29.96 in 10.0 mi South 8.1 mph - N/A   Mostly Cloudy
3:55 PM 68.0 °F 62.6 °F 83% 29.97 in 10.0 mi SSE 8.1 mph - N/A   Scattered Clouds
4:15 PM 68.0 °F 62.6 °F 83% 29.96 in 10.0 mi SSE 9.2 mph - N/A   Scattered Clouds
4:35 PM 66.2 °F 62.6 °F 88% 29.97 in 10.0 mi SSE 6.9 mph - N/A   Scattered Clouds
4:55 PM 66.2 °F 62.6 °F 88% 29.97 in 10.0 mi SSE 8.1 mph - N/A   Mostly Cloudy
5:15 PM 66.2 °F 62.6 °F 88% 29.97 in 7.0 mi SSE 11.5 mph - N/A   Overcast
5:35 PM 64.4 °F 62.6 °F 94% 29.98 in 10.0 mi SSE 13.8 mph - 0.01 in   Overcast
5:55 PM 64.4 °F 62.6 °F 94% 29.98 in 10.0 mi SSE 8.1 mph - 0.01 in   Overcast
6:15 PM 64.4 °F 62.6 °F 94% 30.00 in 10.0 mi South 9.2 mph - N/A   Overcast
6:35 PM 64.4 °F 62.6 °F 94% 30.00 in 10.0 mi South 6.9 mph - N/A   Overcast
6:55 PM 64.4 °F 60.8 °F 88% 30.00 in 10.0 mi SSE 8.1 mph - N/A   Mostly Cloudy
7:15 PM 64.4 °F 60.8 °F 88% 30.00 in 10.0 mi SSE 5.8 mph - N/A   Mostly Cloudy
7:35 PM 64.4 °F 60.8 °F 88% 30.01 in 10.0 mi South 4.6 mph - N/A   Overcast
7:55 PM 64.4 °F 60.8 °F 88% 30.02 in 10.0 mi South 5.8 mph - N/A   Overcast
8:15 PM 62.6 °F 60.8 °F 94% 30.03 in 10.0 mi South 5.8 mph - N/A   Mostly Cloudy
8:35 PM 62.6 °F 60.8 °F 94% 30.03 in 10.0 mi SSE 5.8 mph - N/A   Mostly Cloudy
8:55 PM 62.6 °F 60.8 °F 94% 30.03 in 10.0 mi SSE 6.9 mph - N/A   Scattered Clouds
9:15 PM 62.6 °F 60.8 °F 94% 30.03 in 10.0 mi SSE 6.9 mph - N/A   Scattered Clouds
9:35 PM 62.6 °F 60.8 °F 94% 30.03 in 10.0 mi South 8.1 mph - N/A   Overcast
9:55 PM 62.6 °F 60.8 °F 94% 30.04 in 9.0 mi South 8.1 mph - N/A   Overcast
10:15 PM 64.4 °F 62.6 °F 94% 30.04 in 9.0 mi South 8.1 mph - N/A   Overcast
10:35 PM 64.4 °F 62.6 °F 94% 30.04 in 7.0 mi SSE 10.4 mph - N/A   Overcast
10:55 PM 64.4 °F 62.6 °F 94% 30.04 in 7.0 mi SSE 8.1 mph - N/A   Overcast
11:15 PM 64.4 °F 62.6 °F 94% 30.04 in 8.0 mi South 8.1 mph - N/A   Overcast
11:35 PM 64.4 °F 62.6 °F 94% 30.05 in 10.0 mi South 10.4 mph - N/A   Overcast
11:55 PM 64.4 °F 62.6 °F 94% 30.04 in 8.0 mi South 9.2 mph - N/A   Overcast